Theta_e
301 304 304 303 303 306 305 305 308 314 315 316 313 313 314 314 313 315 316 319 320 321 323 322 325 324 323 324 323 321 318 318 322 322 324 323 326 325 324 325 327 325 326 331
304 303 303 302 302 306 306 303 306 309 311 317 317 317 319 317 315 314 316 319 320 321 322 325 327 328 328 323 324 323 321 318 323 323 323 324 326 326 326 322 322 327 330 332
304 303 302 302 302 305 307 304 312 311 310 309 317 316 319 321 322 320 320 320 320 322 323 325 326 326 328 326 324 333 326 318 321 324 324 325 326 327 327 324 326 326 328 331
303 304 303 302 301 305 307 306 313 310 312 312 308 313 319 323 324 324 323 321 327 328 325 326 331 335 334 332 330 331 321 320 324 323 326 328 327 327 327 326 325 328 326 330
302 303 303 302 302 305 307 311 311 309 308 307 312 312 320 318 319 323 324 329 329 328 330 334 335 333 332 332 329 325 319 323 324 325 326 326 327 329 329 330 328 330 328 332
303 302 302 302 303 304 307 307 309 308 308 309 312 314 316 315 315 325 329 328 328 330 328 326 326 327 327 330 330 328 322 323 324 325 327 329 330 331 329 330 333 328 327 326
302 302 303 303 303 303 305 305 307 309 311 310 313 312 315 315 316 318 328 327 328 329 324 323 327 327 327 331 331 329 326 323 322 325 325 329 327 330 333 336 336 334 331 331
302 302 303 303 303 303 304 305 307 308 309 311 312 313 313 312 315 318 321 322 323 320 323 325 328 331 329 332 331 332 332 334 336 326 324 326 332 333 335 335 336 336 336 334
301 302 303 303 303 303 303 304 306 307 308 309 310 311 311 311 311 318 320 317 315 322 321 327 330 333 334 335 332 331 330 332 337 338 332 330 331 336 334 332 337 334 334 334
303 301 302 304 304 304 303 304 305 307 309 307 308 309 309 307 308 316 317 313 318 323 324 324 326 326 327 337 335 336 334 336 336 337 337 333 333 337 334 335 335 335 332 331
303 302 303 302 304 304 304 304 305 307 310 309 308 309 310 309 309 312 313 317 321 329 331 329 324 324 325 332 335 337 343 342 340 337 335 336 335 336 342 335 333 332 332 333
302 303 303 303 304 304 304 305 305 306 305 308 308 308 308 308 309 307 305 310 318 322 323 327 328 333 330 330 340 336 343 341 346 344 342 335 333 332 331 330 330 331 331 331
303 303 302 304 304 303 304 305 304 307 305 306 305 308 312 311 311 310 309 309 312 315 313 317 327 333 331 338 336 338 337 338 341 338 336 338 335 331 330 330 331 329 330 332
303 302 303 303 304 303 304 304 304 306 305 307 308 311 311 312 311 308 309 308 310 311 312 314 321 328 325 331 333 337 337 336 341 340 338 333 331 329 328 329 329 329 328 329
302 302 303 303 304 302 302 301 302 305 308 309 307 308 311 311 310 312 312 309 310 312 312 312 315 322 322 321 328 333 331 336 339 339 335 332 330 328 326 324 325 323 323 322
301 301 302 301 303 301 303 308 308 305 305 305 309 309 309 310 311 310 310 311 310 311 309 311 312 316 320 324 324 322 329 329 329 333 330 329 327 324 321 321 321 320 319 319
300 301 301 301 302 301 304 307 308 306 305 307 312 312 310 311 310 311 310 310 310 309 308 311 310 312 316 321 321 318 323 319 322 327 320 318 318 318 318 321 322 320 320 319
300 301 301 302 301 300 301 304 305 305 305 304 311 313 311 310 309 312 311 311 310 310 309 309 312 311 310 318 317 317 318 319 319 318 317 317 317 317 317 317 318 317 317 317
301 301 301 302 303 304 308 308 306 306 306 308 312 313 314 308 309 311 312 313 315 311 310 310 310 313 322 315 318 319 318 318 317 317 316 316 316 316 316 316 316 315 314 314
301 301 304 304 306 307 306 305 306 306 306 305 309 309 310 307 310 310 314 312 314 315 314 311 322 323 320 318 316 316 316 316 316 318 318 316 316 316 317 316 315 314 314 314
301 303 306 306 307 305 304 306 309 310 311 308 307 307 308 310 313 315 313 314 314 314 317 316 325 327 323 320 319 319 319 318 317 317 317 317 317 316 316 316 316 315 315 315
303 303 303 306 306 305 308 307 309 311 311 309 308 307 310 312 311 314 314 314 314 315 314 320 329 327 322 321 321 320 318 319 319 319 319 318 318 318 317 315 316 319 320 319
302 304 305 306 303 300 308 310 310 310 309 308 308 309 309 309 309 314 314 316 314 313 318 329 327 323 322 321 320 320 319 319 320 320 321 320 321 321 321 319 321 322 322 322
305 306 305 306 306 309 308 311 313 313 311 310 311 312 312 311 311 314 316 315 314 318 325 326 322 320 319 318 318 319 319 319 320 320 320 322 322 321 321 321 321 323 321 318
306 307 306 309 308 308 311 311 311 310 308 309 310 311 312 312 313 313 313 316 321 324 326 323 321 318 318 318 319 318 316 317 319 320 320 320 320 320 319 319 318 320 320 318
305 306 308 309 310 311 310 308 310 308 308 307 308 313 313 316 314 315 316 320 323 322 320 317 318 319 318 317 316 317 317 316 317 317 319 319 319 318 318 319 321 320 320 321
307 307 307 310 310 310 309 309 308 307 308 311 312 312 312 312 312 316 319 320 319 316 316 315 316 317 317 316 316 317 317 316 316 317 318 318 318 319 320 315 319 320 321 321
Wind_Speed
25 25 29 31 32 39 24 9 4 10 28 3 3 3 5 4 8 8 10 7 15 13 17 21 17 22 17 24 24 12 10 7 13 18 12 8 8 9 7 6 5 1 5 7
24 25 28 30 29 29 20 5 4 10 13 3 3 6 8 7 10 10 7 9 15 14 15 16 10 8 10 13 26 20 11 6 8 8 7 3 7 6 6 6 5 7 6 5
22 24 26 28 28 26 18 3 4 4 4 3 1 5 7 9 7 11 12 19 21 15 16 8 5 6 6 8 26 30 13 6 11 14 9 5 6 7 7 8 5 6 6 5
21 21 26 27 28 30 2 3 4 1 4 3 9 3 5 12 14 7 5 10 4 7 8 6 4 5 7 2 11 22 12 9 7 10 19 10 14 12 9 6 9 9 8 11
21 21 23 26 26 27 3 2 3 5 4 7 5 5 2 9 14 7 6 4 8 10 3 6 3 2 3 3 9 7 6 7 9 16 8 8 7 9 14 7 5 2 6 7
18 20 21 21 21 19 5 9 9 2 5 5 4 1 8 15 17 5 3 3 4 3 6 14 9 8 6 7 4 4 11 7 5 9 7 6 4 2 6 3 4 6 7 11
19 17 17 17 17 13 10 8 8 2 4 3 5 13 16 16 16 8 6 3 2 4 7 10 3 6 6 3 3 1 5 8 4 5 4 5 7 1 12 11 5 7 6 9
18 17 16 16 16 14 14 14 4 2 4 4 13 15 9 14 13 5 3 8 4 6 4 5 6 4 7 5 6 9 3 5 4 5 5 4 3 5 5 6 5 6 2 6
18 16 16 14 15 15 15 24 9 3 2 4 6 10 5 5 5 7 5 9 9 6 3 4 1 2 3 3 8 4 9 8 5 3 6 5 1 6 5 7 6 9 7 8
17 17 16 14 14 14 13 13 14 5 3 5 3 3 4 5 5 4 4 9 9 8 4 1 2 3 0 2 4 5 5 5 4 3 4 2 5 8 2 8 6 5 5 8
16 15 14 14 13 12 12 15 12 4 3 9 6 4 3 5 3 3 6 3 6 6 6 1 2 2 5 3 2 3 4 3 3 4 4 4 15 7 7 4 3 7 8 6
14 14 14 13 12 11 9 8 11 11 3 6 24 30 33 21 18 3 3 3 1 2 2 4 3 4 4 4 3 5 4 5 5 4 3 7 9 9 3 4 6 6 9 6
12 12 11 11 11 9 8 12 16 11 3 5 2 7 13 16 21 18 1 3 2 3 4 1 3 3 2 3 2 5 2 3 4 7 3 4 5 6 8 9 8 9 7 6
11 11 11 11 11 9 9 11 12 11 4 2 6 8 4 5 11 8 9 4 4 2 2 1 2 2 3 0 4 3 4 4 7 1 3 2 4 5 5 8 11 9 8 6
10 9 10 10 10 10 14 18 19 12 4 3 5 20 15 14 9 7 5 5 2 1 2 1 2 2 4 3 4 4 2 6 5 4 4 4 5 4 4 11 6 1 3 7
8 8 8 9 8 10 8 2 3 5 3 0 3 5 4 8 7 6 3 2 3 3 3 3 3 3 4 3 1 6 3 7 8 6 7 7 3 6 4 8 7 9 9 8
8 8 8 9 8 8 5 4 1 4 11 0 4 4 4 8 3 2 1 1 2 3 1 0 1 2 4 3 3 4 6 9 7 6 5 8 6 4 8 10 8 11 10 13
6 6 8 9 10 11 10 16 12 11 3 2 3 4 4 4 1 2 2 1 1 2 2 2 2 3 3 4 4 5 6 12 12 9 9 6 7 11 9 7 10 11 9 8
4 6 7 5 3 3 4 4 1 7 2 2 2 2 3 1 2 2 2 2 0 1 1 2 3 4 7 2 5 11 8 7 5 10 12 12 11 9 10 9 11 8 8 8
3 4 2 2 3 4 4 2 0 1 3 2 3 3 3 2 2 2 1 1 2 2 4 3 5 3 3 7 7 7 8 8 9 12 10 9 7 7 6 6 6 6 6 6
2 2 2 7 8 3 1 2 2 2 3 3 4 4 2 3 3 1 1 1 1 2 3 4 3 3 5 7 8 7 8 8 8 6 3 4 3 5 6 6 6 7 10 7
4 6 7 5 2 1 0 3 3 3 4 2 2 4 4 2 2 2 4 1 3 1 2 4 3 1 4 7 7 7 6 7 6 6 5 5 5 4 2 4 3 7 13 12
4 3 3 2 2 4 2 2 3 2 3 1 1 2 1 4 4 2 3 4 2 1 4 3 2 2 3 5 5 6 6 7 5 6 7 7 8 9 6 5 10 12 6 14
1 2 5 2 3 3 3 1 1 4 2 4 3 3 2 2 4 2 3 2 2 4 4 2 0 2 5 5 5 6 7 7 7 6 7 6 7 8 14 13 13 4 7 8
1 2 4 2 5 2 3 2 1 4 3 4 3 3 3 3 3 2 2 2 4 4 3 2 1 2 5 5 5 5 5 5 5 6 6 7 10 8 7 13 14 15 11 10
2 2 3 4 4 6 4 4 4 4 4 3 3 3 4 4 2 4 4 3 5 2 1 2 2 3 3 3 4 4 5 6 6 9 8 10 11 9 10 13 11 10 10 8
4 2 2 1 3 4 3 3 4 5 4 3 2 3 1 1 2 4 4 3 2 1 1 1 2 3 5 5 5 7 9 9 11 13 14 13 12 12 10 6 11 10 7 7
Wind_Direction
336 339 340 344 351 353 357 351 321 80 147 106 192 218 228 254 262 292 288 284 266 269 294 300 274 219 201 193 203 198 195 175 236 248 249 229 164 172 147 139 228 152 160 264
334 336 337 343 351 1 344 316 264 282 246 258 256 276 272 263 268 251 254 256 266 277 281 284 239 206 216 215 198 201 195 210 236 303 331 357 162 165 141 108 91 184 140 255
332 333 336 340 345 351 343 303 318 309 28 303 344 5 287 285 271 270 280 283 276 288 275 256 279 277 264 197 203 205 163 146 194 224 214 183 194 162 161 142 142 173 203 188
325 332 336 339 344 346 255 221 248 243 318 310 324 260 270 294 307 278 256 293 46 341 274 290 329 324 324 286 221 211 160 181 155 213 223 211 203 184 160 153 181 169 217 183
319 327 333 339 348 352 185 298 8 343 278 279 289 273 282 324 308 258 278 260 351 346 354 320 315 342 333 307 328 234 177 216 153 227 229 212 164 210 160 153 132 72 160 213
310 318 326 337 348 5 337 337 334 80 279 306 316 21 330 309 316 308 66 323 332 17 320 305 244 233 235 241 279 299 153 139 119 214 158 117 74 119 215 245 73 200 169 220
304 314 316 327 338 350 329 303 296 291 276 316 304 319 311 309 304 267 275 200 177 285 302 301 310 264 335 337 296 268 151 123 111 173 111 134 233 173 106 92 8 327 256 187
302 301 307 316 324 330 322 304 287 284 285 324 301 342 307 309 321 314 5 4 351 299 345 358 346 349 3 310 61 350 4 109 82 132 145 198 46 26 153 137 347 318 237 85
298 300 301 304 314 322 320 308 242 282 292 246 358 312 325 317 324 320 319 343 320 4 59 74 348 181 245 281 324 32 50 58 99 85 120 167 218 298 357 103 20 325 75 76
290 291 294 299 305 314 316 283 293 274 271 266 47 285 295 317 307 275 323 331 350 32 353 54 149 270 357 314 11 352 11 12 58 87 130 313 275 291 213 78 219 322 57 69
279 289 288 287 298 307 321 287 301 273 270 286 248 292 336 331 331 320 305 349 358 22 18 320 282 186 228 107 341 108 76 54 11 1 55 27 351 311 84 208 52 68 41 62
284 285 288 290 293 296 310 280 297 317 222 258 298 279 271 252 250 241 302 183 104 199 357 339 359 323 13 166 96 334 44 154 147 91 153 262 322 71 90 80 90 61 67 30
277 286 297 293 292 290 287 287 299 314 286 289 289 257 277 232 242 249 178 314 347 339 169 190 238 291 44 33 322 123 80 103 107 116 241 302 319 30 39 61 62 44 67 27
271 282 288 289 294 288 286 281 279 299 264 274 281 338 323 258 218 227 221 233 332 293 82 232 254 267 40 337 190 71 159 155 103 279 100 1 10 23 95 72 59 40 22 16
272 279 287 290 295 299 294 281 271 249 253 291 285 305 290 233 208 228 273 186 135 296 337 79 262 275 15 356 35 7 357 158 153 194 125 121 268 283 287 82 88 357 23 5
266 274 287 300 301 312 308 290 96 103 5 147 294 286 264 183 209 235 251 172 192 183 177 238 280 230 93 77 86 299 2 95 103 149 198 197 174 6 18 70 45 57 46 38
262 278 283 293 290 296 251 269 194 333 336 333 294 287 267 205 208 251 142 246 212 157 195 293 211 319 79 48 80 292 32 51 61 90 95 57 43 35 23 45 34 49 48 34
267 279 288 289 291 282 277 262 276 254 252 273 276 273 329 161 233 275 167 125 20 316 188 6 119 346 60 78 15 102 92 76 63 70 72 97 77 43 33 40 33 34 22 14
270 291 297 300 229 248 263 221 247 201 216 264 278 278 290 16 255 226 20 117 110 266 111 270 88 6 28 61 86 66 43 87 99 58 49 41 44 26 15 16 17 17 357 359
297 312 276 294 231 286 291 248 35 255 225 235 241 262 285 75 359 337 74 50 169 142 237 95 79 69 2 25 37 48 50 58 51 51 28 19 16 16 3 355 339 332 319 320
306 262 253 295 309 296 296 278 184 216 244 215 233 217 242 321 61 313 132 176 322 80 272 111 86 42 352 13 41 26 32 47 55 78 62 21 337 327 315 315 319 325 315 298
356 318 295 296 323 343 275 248 273 212 234 234 200 239 195 297 77 63 348 55 26 79 290 77 79 49 319 2 16 19 29 30 28 41 28 6 351 323 287 273 289 302 312 306
5 315 305 14 302 25 262 284 292 286 307 251 174 31 91 354 30 48 49 42 292 313 51 67 72 351 343 338 351 356 7 16 17 4 12 356 331 351 3 338 335 333 4 11
284 301 336 134 295 250 256 99 315 272 292 36 71 28 71 317 29 19 54 285 30 46 54 76 279 336 338 353 346 8 1 5 353 339 341 349 2 5 13 2 356 4 354 0
281 289 340 322 300 288 266 238 114 301 348 24 28 28 55 352 39 11 24 33 63 44 65 33 2 7 34 5 354 7 0 352 4 1 6 0 351 353 337 356 345 334 353 17
332 327 340 337 11 347 344 1 5 342 345 7 41 52 38 5 35 20 5 45 50 67 22 298 357 4 340 296 297 324 331 347 339 343 346 341 337 337 344 353 347 349 4 9
3 308 25 295 282 265 299 334 327 332 48 13 34 53 359 2 24 43 32 71 158 161 339 352 323 308 311 311 322 330 338 331 327 319 326 324 327 333 336 338 325 327 335 348